Regional Weather Roundup
Issued by NWS

Home | Current Version | Previous Version | Text Only | Print | Product List | Glossary On
Versions: 1 2 3 4 5 6 7 8 9 10 11 12 13 14 15 16 17 18 19 20 21 22 23 24 25 26 27 28 29 30 31 32 33 34 35 36 37 38 39 40 41 42 43 44 45 46 47 48 49 50
000
ASUS43 KDTX 171201
RWRMI
MICHIGAN HOURLY REGIONAL WEATHER ROUNDUP
NATIONAL WEATHER SERVICE DETROIT/PONTIAC MI
800 AM EDT THU APR 17 2014

NOTE: "FAIR" INDICATES FEW OR NO CLOUDS BELOW 12,000 FEET WITH NO
SIGNIFICANT WEATHER AND/OR OBSTRUCTION TO VISIBILITY.

MIZ047>049-052>055-059>063-066>070-074>076-081>083-171300-
SOUTHEAST LOWER MICHIGAN

CITY           SKY/WX    TMP DP  RH WIND       PRES   REMARKS
ADRIAN         MOSUNNY   34  30  85 E7        30.32S WCI  28
6HR MIN TEMP:  30; 6HR MAX TEMP:  34;

ALMA           PTSUNNY   32  24  72 E8        30.31S WCI  25
ANN ARBOR      MOSUNNY   33  27  78 E6        30.33S WCI  28
BAD AXE        CLOUDY    33  24  69 SE8       30.39R WCI  26
6HR MIN TEMP:  32; 6HR MAX TEMP:  33;

CARO           CLOUDY    34  22  61 E9        30.35F WCI  27
DETROIT CITY   MOSUNNY   39  28  64 SE9       30.36S WCI  33
6HR MIN TEMP:  35; 6HR MAX TEMP:  39;

DETROIT        CLOUDY    35  28  75 E5        30.35S WCI  31
6HR MIN TEMP:  32; 6HR MAX TEMP:  35;

FLINT          PTSUNNY   34  25  69 E9        30.33F WCI  27
6HR MIN TEMP:  30; 6HR MAX TEMP:  34;

GROSSE ILE     PTSUNNY   36  30  80 E5        30.34R WCI  32
HILLSDALE      MOSUNNY   36  23  60 SE13      30.27S WCI  27
HOWELL         PTSUNNY   33  25  71 SE13      30.31S WCI  24
6HR MIN TEMP:  31; 6HR MAX TEMP:  33;


CITY           SKY/WX    TMP DP  RH WIND       PRES   REMARKS
JACKSON        PTSUNNY   33  29  85 SE9       30.29F WCI  25
6HR MIN TEMP:  31; 6HR MAX TEMP:  33;

LAMBERTVILLE   SUNNY     37  23  56 SE5       30.33S WCI  34
LANSING        PTSUNNY   34  25  69 SE13      30.29F WCI  25
6HR MIN TEMP:  32; 6HR MAX TEMP:  34;

LAPEER         FAIR      31  24  74 SE6       30.35F WCI  25
MASON          PTSUNNY   33  28  81 SE10G16   30.29S WCI  25
MONROE         MOSUNNY   39  30  70 E5        30.32F
MT. CLEMENS    CLOUDY    36  28  72 SE12      30.36R WCI  28
6HR MIN TEMP:  33; 6HR MAX TEMP:  36;

PONTIAC        PTSUNNY   33  25  72 E8        30.33S WCI  26
6HR MIN TEMP:  31; 6HR MAX TEMP:  33;

PORT HOPE        N/A     35  26  69 SE17      30.39F WCI  25
6HR MIN TEMP:  34; 6HR MAX TEMP:  35;

PORT HURON     MOSUNNY   34  25  69 SE7       30.39R WCI  28
TRI CITIES     PTSUNNY   34  23  64 E14       30.34S WCI  25
6HR MIN TEMP:  32; 6HR MAX TEMP:  35;

TROY           MOSUNNY   34  28  76 E3        30.37R
SAGINAW HB     PTSUNNY   32  23  69 E8        30.34S WCI  25
YPSILANTI      MOSUNNY   37  28  70 E6        30.34S WCI  32
6HR MIN TEMP:  31; 6HR MAX TEMP:  37;

$$
MIZ043>046-050>051-056>058-064>065-071>073-077>080-171300-
SOUTHWEST LOWER MICHIGAN

CITY           SKY/WX    TMP DP  RH WIND       PRES   REMARKS
BATTLE CREEK   PTSUNNY   37  22  54 SE9       30.26S WCI  30
6HR MIN TEMP:  35; 6HR MAX TEMP:  37;

BENTON HARBOR  PTCLDY    38  26  62 SE15G23   30.19F WCI  29
6HR MIN TEMP:  36; 6HR MAX TEMP:  40;

BIG RAPIDS     PTSUNNY   33  23  65 SE10      30.26S WCI  25
6HR MIN TEMP:  32; 6HR MAX TEMP:  36;

COLDWATER      MOSUNNY   35  23  60 SE8       30.27R WCI  29
6HR MIN TEMP:  34; 6HR MAX TEMP:  35;

FREMONT        FAIR      36  24  62 SE12      30.23R WCI  28
6HR MIN TEMP:  35; 6HR MAX TEMP:  37;

HOLLAND        MOSUNNY   38  25  59 SE12      30.22S WCI  30
6HR MIN TEMP:  37; 6HR MAX TEMP:  40;

GRAND RAPIDS   CLOUDY    36  27  69 SE12      30.25S WCI  28
6HR MIN TEMP:  35; 6HR MAX TEMP:  37;

IONIA          FAIR      32  27  80 E9        30.27S WCI  24
KALAMAZOO      PTSUNNY   37  23  56 SE8G16    30.25S WCI  31
6HR MIN TEMP:  36; 6HR MAX TEMP:  37;

LUDINGTON      CLOUDY    37  25  63 SE15G23   30.18F WCI  28
MARSHALL       PTSUNNY   35  22  60 SE9       30.26S WCI  28
MOUNT PLEASANT CLOUDY    33  23  68 E9        30.30F WCI  25
6HR MIN TEMP:  32; 6HR MAX TEMP:  34;

MUSKEGON       MOCLDY    38  25  59 SE17G25   30.21S WCI  28
6HR MIN TEMP:  36; 6HR MAX TEMP:  40;

SOUTH HAVEN    PTCLDY    38  25  58 SE7       30.21S WCI  33
$$
MIZ016>042-171300-
NORTHERN LOWER MICHIGAN

CITY           SKY/WX    TMP DP  RH WIND       PRES   REMARKS
ALPENA         CLOUDY    33  27  78 SE16G26   30.39F WCI  23
6HR MIN TEMP:  33; 6HR MAX TEMP:  34;

BEAVER ISLAND  PTSUNNY   32  26  79 E14       30.28F WCI  22
6HR MIN TEMP:  31; 6HR MAX TEMP:  32;

BELLAIRE       CLOUDY    37  19  48 SE12G23   30.26S WCI  29
6HR MIN TEMP:  37; 6HR MAX TEMP:  38;

CADILLAC       CLOUDY    32  21  64 SE13      30.24S WCI  22
CHARLEVOIX     PTSUNNY   36  22  56 E12G18    30.30S WCI  28
6HR MIN TEMP:  35; 6HR MAX TEMP:  38;

FRANKFORT      CLOUDY    37  22  54 SE16G25   30.20S WCI  28
GAYLORD        CLOUDY    31  20  63 SE14G22   30.29F WCI  21
6HR MIN TEMP:  31; 6HR MAX TEMP:  32;

GRAYLING       CLOUDY    33  21  62 E10       30.31S WCI  25
6HR MIN TEMP:  33; 6HR MAX TEMP:  33;

HARBOR SPRINGS CLOUDY    35  23  62 E12       30.30S WCI  27
HOUGHTON LAKE  CLOUDY    32  21  64 SE10G20   30.30S WCI  24
6HR MIN TEMP:  31; 6HR MAX TEMP:  33;

MANISTEE       CLOUDY    37  19  48 SE10G20   30.20S WCI  30
OSCODA         CLOUDY    35  25  65 SE14G21   30.39S WCI  26
PELLSTON       CLOUDY    35  21  56 E13       30.33S WCI  26
6HR MIN TEMP:  33; 6HR MAX TEMP:  35;

ROGERS CITY    CLOUDY    33  27  77 SE12G18   30.39R WCI  24
TRAVERSE CITY  CLOUDY    36  20  52 SE8G21    30.23S WCI  30
6HR MIN TEMP:  36; 6HR MAX TEMP:  38;

$$
MIZ007>008-015-171300-
EASTERN UPPER MICHIGAN

CITY           SKY/WX    TMP DP  RH WIND       PRES   REMARKS
KINROSS        CLOUDY    28  28 100 E18       30.37S WCI  16
6HR MIN TEMP:  28; 6HR MAX TEMP:  30; 6HR PCP:  0.02;

MACKINAC ISLAN CLOUDY    32  31  96 E15G25    30.35R WCI  21
6HR MIN TEMP:  31; 6HR MAX TEMP:  32; 6HR PCP:  0.01;

NEWBERRY       LGT SNOW  30  28  94 E15G21    30.31S WCI  19
6HR MIN TEMP:  28; 6HR MAX TEMP:  30; 6HR PCP:  0.01;

S. S. MARIE    LGT SNOW  29  26  89 E13G21    30.40S FOG     WCI  19
6HR MIN TEMP:  28; 6HR MAX TEMP:  29; 6HR PCP:  0.24;

$$
MIZ004>006-011>014-085-171300-
CENTRAL UPPER MICHIGAN

CITY           SKY/WX    TMP DP  RH WIND       PRES   REMARKS
MANISTIQUE     PTSUNNY   32  28  84 E9G22     30.26S WCI  24
ESCANABA       CLOUDY    34  27  75 E18       30.19F WCI  23
6HR MIN TEMP:  32; 6HR MAX TEMP:  34;

MENOMINEE      CLOUDY    34  30  86 SE12G20   30.13F WCI  25
6HR MIN TEMP:  32; 6HR MAX TEMP:  37;

SAWYER-GWINN   LGT SNOW  30  28  93 SE14G23   30.18F WCI  20
$$
MIZ001>003-009>011-084-171300-
WESTERN UPPER MICHIGAN

CITY           SKY/WX    TMP DP  RH WIND       PRES   REMARKS
IRON MOUNTAIN  LGT SNOW  31  29  92 E12G20    30.11S VSB 3/4 WCI  22
6HR MIN TEMP:  30; 6HR MAX TEMP:  31; 6HR PCP:  0.04;

HOUGHTON       HVY SNOW  29  27  92 E17G25    30.17S VSB 1/4 WCI  17
6HR MIN TEMP:  27; 6HR MAX TEMP:  29; 6HR PCP: TRACE;

COPPER HARBOR    N/A     32  28  85 S13G25    30.22F WCI  22
6HR MIN TEMP:  29; 6HR MAX TEMP:  32; 6HR PCP:  0.18;

IRONWOOD       CLOUDY    30  27  86 N5        30.04R VSB 3/4 WCI  25
6HR MIN TEMP:  30; 6HR MAX TEMP:  30;

$$

ABBREVIATIONS USED IN REMARKS
   TC - TEMPERATURE IN CELSIUS
  WCI - WIND CHILL INDEX
   HX - HEAT INDEX
  VSB - VISIBILITY




USA.gov is the U.S. government's official web portal to all federal, state and local government web resources and services.